Location: Saint Peter Extra
(51.3667°N, 1.4167°E)
Time: 06:43:20
(UTC+00:00)

Daily predictions for brighter satellites

Satellite Brightness Start Highest point End
(mag) Time Altitude Azimuth Time Altitude Azimuth Time Altitude Azimuth
Cosmos 1452 Rocket 3.7 17:05:12 10° SSW 17:10:29 85° WNW 17:15:48 10° NNE
Cosmos 1606 Rocket 4.0 17:09:25 10° SSE 17:13:32 42° E 17:17:42 10° NNE
Helios 1A Rocket 3.9 17:10:18 10° ESE 17:13:43 26° ENE 17:17:08 10° N
CZ-4B R/B 3.5 17:11:59 10° SSE 17:17:35 77° WSW 17:23:07 10° NNW
Okean-O 3.5 17:16:24 10° ESE 17:20:11 28° ENE 17:23:59 10° N
Cosmos 1689 Rocket 3.7 17:18:21 10° NE 17:20:13 16° E 17:22:04 10° SE
AQUARIUS 4.3 17:17:38 10° SSE 17:22:08 83° WSW 17:26:40 10° NNW
Cosmos 1400 Rocket 3.8 17:21:49 10° SSE 17:25:16 27° E 17:28:44 10° NE
Cosmos 1908 3.7 17:23:18 10° SSW 17:27:08 66° WNW 17:31:01 10° N
Cosmos 2227 Rocket 2.4 17:21:43 10° NNW 17:27:16 52° NE 17:32:47 10° SE
Cosmos 2266 Rocket 4.5 17:21:25 10° NNW 17:27:35 68° W 17:33:50 10° S
Cosmos 2058 4.1 17:24:58 10° NNE 17:28:11 22° ENE 17:31:23 10° ESE
H-2A R/B 3.2 17:23:52 10° ESE 17:28:13 25° ENE 17:32:35 10° N
Meteor 2-16 Rocket 4.4 17:22:23 10° N 17:28:28 66° ENE 17:34:32 10° SSE
Cosmos 1892 3.7 17:26:17 10° N 17:29:39 27° ENE 17:33:00 10° SE
GEOS 3 Rocket 4.2 17:25:18 10° ESE 17:30:20 44° NNE 17:35:27 10° NW
CZ-4 R/B 2.2 17:27:06 10° SE 17:30:25 28° ENE 17:33:44 10° N
Cosmos 2263 Rocket 3.7 17:28:18 10° NNW 17:32:13 18° NNE 17:35:34 12° ENE
Cosmos 1408 3.9 17:31:01 10° NNE 17:33:47 20° ENE 17:36:34 10° ESE
BREEZE-M DEB (TANK) 4.1 17:30:34 10° WSW 17:34:11 88° SSE 17:46:14 13° ENE
BREEZE-M R/B 4.2 17:23:24 10° W 17:34:30 70° S 17:37:08 14° E
Cosmos 1244 Rocket 4.5 17:29:54 10° N 17:36:04 63° ENE 17:42:15 10° SSE
NOSS 3-4 (A) 4.4 17:32:13 10° NW 17:38:22 39° NNE 17:44:11 14° E
NOSS 3-4 (C) 4.4 17:32:20 10° NW 17:38:28 38° NNE 17:44:16 14° E
CZ-4C R/B 3.7 17:33:15 10° NW 17:38:44 30° N 17:44:25 12° ENE
Cosmos 1953 Rocket 3.5 17:36:12 10° N 17:40:38 85° ENE 17:45:04 10° S
Cosmos 1300 2.6 17:39:46 10° S 17:43:33 65° E 17:47:21 10° NNE
SL-4 R/B 1.6 17:42:56 10° W 17:46:29 84° N 17:49:04 19° E
Cosmos 2058 Rocket 3.3 17:42:36 10° SSE 17:46:53 47° E 17:51:14 10° NNE
Cosmos 1697 Rocket 3.9 17:42:57 10° SSE 17:46:56 20° E 17:49:37 15° ENE
Cosmos 1331 Rocket 3.9 17:42:12 10° SSW 17:47:21 83° ESE 17:52:33 10° NNE
Cosmos 1346 Rocket 3.4 17:44:55 10° N 17:48:34 33° ENE 17:52:13 10° SE
IRS-1C Rocket 4.0 17:43:56 10° SSE 17:49:11 77° ENE 17:54:30 10° NNW
CZ-2D R/B 3.3 17:45:34 10° SSE 17:49:17 53° ENE 17:53:00 10° N
SeaSat 1 3.3 17:46:27 15° E 17:49:51 31° NE 17:54:09 10° NNW
USA 305 2.9 17:45:54 10° WNW 17:50:15 81° NNE 17:53:27 18° ESE
Cosmos 1825 3.4 17:47:50 10° NNE 17:50:47 21° ENE 17:51:38 20° E
Cosmos 44 3.2 17:50:14 10° SSW 17:54:43 66° SE 17:59:04 13° NE
Cosmos 1315 Rocket 4.0 17:53:31 10° SE 17:56:20 21° E 17:56:20 21° E
USA 306 2.9 17:52:20 10° WNW 17:56:39 85° NNE 17:59:35 20° ESE
USA 215 3.6 17:51:39 16° E 17:56:54 57° N 18:03:17 10° WNW
SAR-Lupe-4 3.4 17:54:52 10° NNE 17:58:28 72° ESE 18:02:03 10° S
ERS-2 2.6 17:54:56 10° N 17:58:34 64° WNW 18:02:11 10° SSW
BREEZE-M R/B 3.4 17:56:46 10° W 18:00:23 75° S 18:05:18 19° E
ATLAS 2AS CENTAUR R/B 3.5 17:53:13 10° NW 18:00:31 42° NNE 18:05:16 19° E
Cosmos 968 Rocket 3.4 17:57:34 10° NNW 18:02:49 72° ENE 18:08:00 10° SSE
Cosmos 1340 2.6 17:59:47 10° NNW 18:03:36 89° E 18:07:22 10° SSE
Cosmos 2297 Rocket 2.4 18:01:32 10° NNW 18:07:14 77° WSW 18:12:53 10° SSE
COSMO-SKYMED 1 2.5 18:02:54 10° NNE 18:07:15 69° ESE 18:11:35 10° S
HJ-1C 4.3 18:07:27 28° ENE 18:07:27 28° ENE 18:10:19 10° N
MOS 1 Rocket 4.1 18:03:47 10° NNE 18:07:50 29° E 18:12:05 10° SSE
Cosmos 2369 Rocket 4.3 18:03:44 10° W 18:08:06 22° NW 18:12:29 10° NNE
Cosmos 1076 Rocket 3.9 18:04:39 10° N 18:08:38 38° ENE 18:11:35 16° SE
H-2A R/B 4.1 18:05:15 10° N 18:08:49 28° WNW 18:12:20 10° WSW
In-Cosmos 22 Rocket 4.1 18:04:20 10° NNW 18:09:42 88° E 18:15:10 10° SSE
Cosmos 1980 Rocket 4.0 18:06:17 10° SE 18:07:19 13° SE 18:07:19 13° SE
Aureole 3 Rocket 3.2 18:08:20 10° S 18:12:26 79° E 18:18:14 10° NNE
SAR-Lupe-1 4.2 18:12:44 10° NNE 18:16:21 77° WNW 18:19:56 10° SSW
S3M 4.1 18:10:40 10° SSE 18:16:31 50° E 18:22:27 10° NNE
CSL-04 Debris 4.2 18:11:24 10° SE 18:16:43 57° ENE 18:22:05 10° N
Cosmos 1302 Rocket 3.9 18:13:05 10° SSW 18:18:21 81° ESE 18:23:40 10° NNE
SL-08 ROCKET BODY 4.4 18:13:14 10° N 18:19:23 78° E 18:25:32 10° SSE
Lacrosse 5 2.5 18:16:11 10° WNW 18:21:02 44° N 18:23:30 26° ENE
FALCON 9 DEB 3.1 18:17:53 10° WNW 18:21:18 74° N 18:22:07 48° E
FALCON 9 DEB 3.1 18:19:58 10° SW 18:23:08 55° SSE 18:23:30 51° SE
Okean O Rocket 4.4 18:19:55 10° SW 18:23:13 21° W 18:26:33 10° NW
Cosmos 1486 Rocket 4.1 18:17:57 10° NNW 18:23:19 79° WSW 18:28:38 10° SSE
ERBS 3.5 18:20:21 10° WNW 18:23:22 30° N 18:24:02 27° NNE
Cosmos 292 Rocket 4.2 18:18:47 10° SW 18:23:33 65° WNW 18:28:24 10° NNE
YAOGAN 1 2.4 18:20:02 10° SSE 18:24:21 82° ENE 18:28:42 10° NNW
Aureole 3 3.0 18:23:04 10° SSW 18:26:07 63° WNW 18:29:05 10° N
FALCON 9 DEB 2.9 18:24:09 10° WSW 18:27:19 60° SSE 18:27:30 58° SE
Cosmos 1417 Rocket 4.4 18:21:20 10° S 18:27:33 73° E 18:33:53 10° NNE
Cosmos 1812 Rocket 4.1 18:27:13 10° SSE 18:35:44 - NNE 18:30:36 37° ESE
Cosmos 1455 2.6 18:28:24 10° S 18:31:13 40° SE 18:31:13 40° SE
Meteor 2-8 Rocket 4.5 18:26:15 10° SSW 18:32:22 83° W 18:38:34 10° N
Cosmos 1503 Rocket 3.9 18:27:55 10° NNW 18:33:10 77° ENE 18:37:11 17° SSE
Meteor 2-3 Rocket 4.5 18:29:22 10° N 18:34:27 31° ENE 18:34:44 31° ENE
CZ-2C R/B 3.3 18:28:43 10° SSE 18:34:31 88° WSW 18:40:10 10° NNW
CZ-4B R/B 3.8 18:34:25 10° NNW 18:37:03 23° WNW 18:39:37 10° WSW
Cosmos 2219 4.3 18:31:58 10° NW 18:37:26 46° WSW 18:42:53 10° S
FALCON 9 DEB 3.1 18:36:09 10° WSW 18:39:09 64° S 18:39:09 64° S
USA 307 3.1 18:35:20 10° WNW 18:39:35 66° SSW 18:40:52 42° SE
USA 308 3.2 18:40:10 10° WNW 18:44:25 63° SSW 18:45:31 45° SSE
Cosmos 1354 Rocket 3.9 18:39:26 10° NNW 18:44:44 84° ENE 18:47:53 25° SSE
Meteor 2-10 Rocket 3.4 18:40:10 10° S 18:45:27 79° E 18:50:35 10° NNE
Cosmos 1553 Rocket 4.1 18:39:41 10° SSW 18:46:03 79° W 18:52:21 10° N
Cosmos 2082 3.8 18:40:33 10° NNW 18:46:19 81° WSW 18:50:45 18° SSE
Helios 1A Rocket 4.3 18:44:50 10° S 18:48:43 39° W 18:52:36 10° NNW
FALCON 9 DEB 3.6 18:47:45 10° WSW 18:50:17 52° WSW 18:50:17 52° WSW
Cosmos 1689 Rocket 4.0 18:48:53 10° N 18:51:28 30° WNW 18:54:02 10° SW
Cosmos 2278 Rocket 4.5 18:50:39 10° N 18:51:42 10° N 18:52:45 10° NNE
ATLAS 5 CENTAUR R/B 3.7 18:49:25 10° NW 18:53:02 21° N 18:55:00 17° NNE
Meteor 2-15 Rocket 4.3 18:47:45 10° S 18:53:54 80° E 19:00:05 10° NNE
Okean-O 3.9 18:52:20 10° S 18:56:32 41° W 19:00:45 10° NNW
Cosmos 2151 3.7 18:53:10 10° N 18:56:04 39° NNE 18:56:04 39° NNE
Cosmos 1992 Rocket 3.8 18:52:10 10° SSW 18:57:21 73° ESE 18:59:48 32° NNE
ARGOS 3.0 18:54:41 21° SSE 18:58:22 83° ENE 19:03:50 10° NNW
SL-08 RB Rocket 3.7 19:00:38 58° NE 19:00:38 58° NE 19:04:38 10° N
Cosmos 2369 3.7 18:56:40 10° SSW 19:02:16 60° ESE 19:03:11 53° ENE
Cosmos 2058 4.0 19:01:24 10° NNW 19:05:18 43° W 19:09:11 10° SSW
CZ-4 R/B 3.1 19:01:54 10° SSW 19:05:24 31° W 19:08:54 10° NNW
Cosmos 1656 3.9 18:59:51 10° SW 19:05:25 70° WNW 19:10:04 16° NNE
Cosmos 1844 Rocket 4.3 19:01:29 10° NNW 19:05:18 20° NNE 19:05:18 20° NNE
H-2A R/B 2.4 19:01:48 10° S 19:07:12 67° WSW 19:12:40 10° NNW
Ariane Rocket 3.2 19:07:51 52° NE 19:07:51 52° NE 19:12:17 10° N
Geosat 3.8 19:06:43 58° NE 19:07:41 76° ESE 19:12:41 10° SSW
GEOS 3 Rocket 4.1 19:05:41 30° SSE 19:08:15 60° SW 19:13:37 10° NW
Cosmos 1408 4.0 19:05:33 10° NNW 19:08:57 37° W 19:11:40 14° SSW
Cosmos 220 Rocket 4.0 19:06:18 10° SSW 19:10:40 80° WNW 19:10:52 77° NNW
Cosmos 2227 Rocket 3.8 19:06:07 10° NW 19:11:07 33° WSW 19:16:07 10° SSW
CSL-04 Rocket 4.3 19:11:04 10° S 19:16:31 57° WSW 19:21:58 10° NNW
Cosmos 2263 Rocket 2.2 19:11:44 10° NNW 19:17:16 59° NE 19:17:16 59° NE
Timation 1 Rocket 4.5 19:12:18 10° NW 19:18:18 71° WSW 19:20:34 40° S
SL-4 R/B 3.3 19:22:25 10° W 19:24:38 34° W 19:24:38 34° W
Cosmos 1825 3.5 19:22:54 10° NNW 19:26:26 37° W 19:26:28 37° W
SeaSat 1 2.8 19:26:15 52° SSW 19:27:07 60° WSW 19:32:02 10° NW
CZ-4C R/B 3.0 19:22:07 10° NW 19:28:43 54° NE 19:29:36 51° ENE
USA 305 4.3 19:26:08 10° WNW 19:29:36 34° SW 19:29:36 34° SW
NOSS 3-4 (A) 3.7 19:23:10 10° NW 19:30:04 90° NE 19:31:39 60° SE
NOSS 3-4 (C) 3.7 19:23:17 10° NW 19:30:10 89° NE 19:31:43 60° SE
Cosmos 1697 Rocket 2.7 19:24:38 10° SSW 19:30:15 80° WNW 19:31:25 57° NNE
Cosmos 2184 Rocket 4.4 19:26:02 10° N 19:31:04 49° NE 19:31:04 49° NE
Cosmos 1315 Rocket 4.1 19:29:03 10° SW 19:32:10 38° W 19:32:10 38° W
USA 306 4.5 19:32:35 10° WNW 19:35:44 30° WSW 19:35:44 30° WSW
DEBRIS 4.1 19:21:51 10° WSW 19:36:38 65° SSE 19:36:49 64° SSE
Cosmos 1709 Rocket 4.5 19:32:32 10° NNW 19:38:49 60° W 19:44:29 13° S
USA 215 3.1 19:39:00 74° ESE 19:39:42 87° NNE 19:46:17 10° WNW
NOSS 3-3 (A) 3.9 19:35:25 10° SW 19:41:21 87° NW 19:41:47 79° NNE
NOSS 3-3 (C) 3.9 19:35:31 10° SW 19:41:29 88° NW 19:41:53 80° NNE
SJ 16-02 3.7 19:40:09 10° N 19:41:07 16° N 19:41:07 16° N
MOS 1 Rocket 4.4 19:41:51 10° N 19:46:13 42° WNW 19:50:49 10° SW
ATLAS 2AS CENTAUR R/B 2.7 19:44:39 10° NW 19:52:17 86° SW 19:52:43 80° SSE
Cosmos 2074 Rocket 4.3 19:46:14 10° N 19:51:03 55° N 19:51:03 55° N
Cosmos 1980 Rocket 3.9 19:47:17 10° SSW 19:49:11 22° SSW 19:49:11 22° SSW
IRS-1A Rocket 4.5 19:53:26 67° WNW 19:53:26 67° WNW 19:58:36 10° NNW
COSMOS 2455 4.3 19:51:03 10° NNW 19:55:08 27° N 19:55:08 27° N
Resurs 01 Rocket 4.3 20:02:03 12° N 20:02:03 12° N 20:02:19 10° N
Cosmos 2315 Rocket 4.4 19:55:17 10° SSW 20:01:24 60° WNW 20:07:34 10° N
Lacrosse 5 3.1 19:59:32 10° WNW 20:02:41 37° NW 20:02:41 37° NW
Cosmos 2278 Rocket 4.5 20:33:56 10° NNW 20:35:28 15° N 20:35:28 15° N
ATLAS 5 CENTAUR R/B 4.2 20:34:46 10° NW 20:36:32 19° NNW 20:36:32 19° NNW
Cosmos 2263 Rocket 4.2 20:56:10 10° NW 20:58:58 23° WNW 20:58:58 23° WNW
CZ-4C R/B 4.0 21:10:37 10° NW 21:14:47 38° WNW 21:14:47 38° WNW
